Location: Trondheim
(63.4170°N, 10.4170°E)
Time: 02:33:48
(UTC+02:00)

Iridium 82 - Visible Passes

Search period start: 28 April 2015 00:00
Search period end: 08 May 2015 00:00
Orbit: 776 x 779 km, 86.4° (Epoch: 27 April)

Date Brightness Start Highest point End Pass type
(mag) Time Alt. Az. Time Alt. Az. Time Alt. Az.
28 Apr 8.2 00:13:34 10° NW 00:16:00 13° WNW 00:18:17 10° W visible
28 Apr 8.0 23:39:20 10° NNW 23:42:54 18° WNW 23:46:20 10° WSW visible
29 Apr 7.6 23:05:25 10° NNW 23:09:41 26° WNW 23:13:53 10° SW visible
30 Apr 7.1 22:31:38 10° NNW 22:36:24 36° W 22:41:07 10° SW visible
01 May 8.5 00:14:40 10° NW 00:15:48 11° WNW 00:16:46 10° WNW visible
01 May 8.2 23:39:47 10° NNW 23:42:44 15° WNW 23:45:33 10° W visible
02 May 8.0 23:05:42 10° NNW 23:09:35 21° WNW 23:13:22 10° WSW visible
04 May 8.4 23:40:27 10° NW 23:42:33 12° WNW 23:44:28 10° W visible
05 May 8.2 23:06:04 10° NNW 23:09:27 17° WNW 23:12:41 10° WSW visible
